Latest Weather Observations for Cape Bruny AWS

IDT60801

Issued at 9:02 pm EDT Wednesday 18 January 2017 (issued every 30 minutes, with the page automatically refreshed every 10 minutes)

About weather observations | Map of weather stations | Latest weather observations for TAS | Other Formats
Station Details ID: 094198 Name: CAPE BRUNY (CAPE BRUNY) Lat: -43.49 Lon: 147.14 Height: 59.7 m
Data from the previous 72 hours. | See also: Recent months at Cape Bruny AWS
Date/Time
EDT
Temp
°C
App
Temp
°C
Dew
Point
°C
Rel
Hum
%
Delta-T
°C
Wind Press
QNH
hPa
Press
MSL
hPa
Rain since
9am
mm
Dir  Spd
km/h
Gust
km/h
Spd
kts
Gust
kts
18/09:00pm 12.4 6.1 5.6 63 3.2 WSW 28 37 15 20 1015.8 - -
18/08:30pm 12.4 3.1 6.0 65 3.0 WSW 44 54 24 29 1015.4 1015.4 0.0
18/08:00pm 12.5 2.8 5.9 64 3.1 WSW 46 61 25 33 1015.1 1015.1 0.0
18/07:30pm 12.4 2.4 6.2 66 2.9 WSW 48 61 26 33 1014.6 1014.6 0.0
18/07:02pm 12.9 2.6 6.5 65 3.1 WSW 50 69 27 37 1014.1 1014.0 0.0
18/07:00pm 12.9 2.2 6.3 64 3.1 WSW 52 69 28 37 1014.1 1014.0 0.0
18/06:30pm 13.3 4.4 6.9 65 3.1 WSW 43 61 23 33 1013.7 1013.6 0.0
18/06:06pm 13.4 4.1 5.8 60 3.6 WSW 44 63 24 34 1013.5 1013.4 0.0
18/06:00pm 14.2 4.2 6.1 58 3.9 WSW 48 63 26 34 1013.5 1013.4 0.0
18/05:30pm 13.4 2.1 7.0 65 3.1 WSW 56 76 30 41 1012.8 1012.7 0.0
18/05:25pm 13.5 2.4 6.4 62 3.4 WSW 54 76 29 41 1012.7 1012.6 0.0
18/05:00pm 13.3 3.1 7.1 66 3.0 WSW 50 61 27 33 1012.5 1012.4 0.0
18/04:30pm 14.4 3.9 5.7 56 4.1 WSW 50 65 27 35 1012.5 1012.4 0.0
18/04:00pm 14.8 3.2 5.9 55 4.3 WSW 56 69 30 37 1011.8 1011.7 0.0
18/03:37pm 14.1 3.0 6.5 60 3.7 WSW 54 72 29 39 1011.5 1011.4 0.0
18/03:30pm 14.7 3.0 5.2 53 4.5 WSW 56 69 30 37 1011.6 1011.5 0.0
18/03:00pm 13.9 2.1 5.5 57 4.0 WSW 57 76 31 41 1011.4 1011.3 0.0
18/02:44pm 13.9 1.0 5.8 58 3.8 WSW 63 82 34 44 1011.2 1011.1 0.0
18/02:30pm 13.8 1.3 5.9 59 3.8 WSW 61 76 33 41 1011.0 1010.9 0.0
18/02:01pm 14.7 3.6 6.3 57 4.1 WSW 54 72 29 39 1010.5 1010.4 0.0
18/02:00pm 14.6 2.9 5.4 54 4.4 WSW 56 72 30 39 1010.5 1010.4 0.0
18/01:33pm 13.7 -0.1 5.1 56 4.0 WSW 67 85 36 46 1009.8 1009.7 0.0
18/01:30pm 13.8 0.6 4.4 53 4.3 WSW 63 80 34 43 1009.9 1009.8 0.0
18/01:17pm 14.8 3.0 4.8 51 4.7 WSW 56 78 30 42 1009.6 1009.5 0.0
18/01:00pm 15.2 4.4 6.0 54 4.4 WSW 52 67 28 36 1009.6 1009.5 0.0
18/12:30pm 13.4 0.7 5.1 57 3.9 WSW 61 80 33 43 1009.3 1009.2 0.0
18/12:00pm 13.7 0.8 5.8 59 3.8 W 63 83 34 45 1008.8 1008.7 0.0
18/11:30am 14.3 1.7 7.1 62 3.5 WSW 63 83 34 45 1008.1 1008.0 0.0
18/11:00am 13.4 0.7 5.1 57 3.9 WSW 61 82 33 44 1007.5 1007.4 0.0
18/10:39am 13.3 -1.1 4.2 54 4.2 WSW 69 87 37 47 1007.0 1006.9 0.0
18/10:30am 13.2 -1.2 4.9 57 3.8 WSW 70 87 38 47 1006.9 1006.8 0.0
18/10:00am 13.2 0.9 7.0 66 3.0 WSW 61 83 33 45 1006.5 1006.4 0.0
18/09:39am 12.9 0.1 6.3 64 3.1 WSW 63 82 34 44 1006.2 1006.1 0.0
18/09:30am 13.1 -0.4 6.7 65 3.1 WSW 67 82 36 44 1005.9 1005.8 0.0
18/09:05am 12.4 -1.9 7.5 72 2.4 WSW 72 91 39 49 1005.6 1005.5 0.0
18/09:00am 12.0 -2.8 6.7 70 2.5 WSW 74 91 40 49 1005.3 1005.2 2.4
18/08:30am 11.3 -0.2 8.7 84 1.3 W 59 80 32 43 1004.7 1004.6 2.4
18/08:00am 11.2 0.7 8.8 85 1.2 W 54 80 29 43 1004.3 1004.2 2.0
18/07:35am 10.9 -0.8 8.0 82 1.4 W 59 78 32 42 1003.6 1003.5 1.2
18/07:30am 11.4 0.8 8.3 81 1.5 W 54 70 29 38 1003.5 1003.4 1.2
18/07:00am 11.9 0.5 7.4 74 2.2 W 57 80 31 43 1003.0 1002.9 1.0
18/06:32am 10.9 -2.9 6.8 76 1.9 W 69 87 37 47 1002.2 1002.1 1.0
18/06:30am 10.9 -2.5 7.2 78 1.8 W 67 83 36 45 1002.3 1002.2 1.0
18/06:00am 9.1 -5.3 5.3 77 1.7 W 70 93 38 50 1001.6 1001.6 0.8
18/05:49am 10.7 -2.6 7.6 81 1.5 WSW 67 96 36 52 1001.7 1001.7 0.6
18/05:30am 12.5 0.9 6.8 68 2.7 W 57 78 31 42 1000.8 1000.8 0.6
18/05:01am 12.1 -1.7 7.2 72 2.4 W 69 87 37 47 1000.1 1000.0 0.6
18/05:00am 12.2 -1.7 7.5 73 2.3 W 70 87 38 47 1000.1 1000.0 0.6
18/04:46am 12.0 -0.3 7.1 72 2.4 W 61 100 33 54 999.8 999.7 0.6
18/04:41am 12.9 2.2 8.2 73 2.3 W 54 76 29 41 1000.2 1000.1 0.6
18/04:30am 13.1 1.8 7.8 70 2.6 W 57 74 31 40 1000.0 999.9 0.6
18/04:15am 12.6 1.5 6.2 65 3.0 W 54 74 29 40 1000.0 999.9 0.6
18/04:00am 12.5 0.7 7.4 71 2.5 W 59 70 32 38 999.9 999.8 0.6
18/03:49am 11.9 1.4 7.4 74 2.2 W 52 72 28 39 999.9 999.8 0.6
18/03:30am 13.7 3.6 7.5 66 3.0 W 50 65 27 35 999.8 999.7 0.4
18/03:27am 13.5 4.0 6.8 64 3.2 WNW 46 65 25 35 999.7 999.6 0.4
18/03:00am 13.4 5.0 7.4 67 3.0 WNW 41 54 22 29 999.8 999.7 0.4
18/02:30am 13.3 5.9 6.9 65 3.1 WNW 35 54 19 29 1000.3 1000.2 0.4
18/02:12am 13.3 6.2 6.6 64 3.2 WNW 33 52 18 28 1000.4 1000.4 0.4
18/02:00am 13.5 6.1 6.6 63 3.3 WNW 35 50 19 27 1000.7 1000.7 0.4
18/01:30am 13.5 6.2 7.3 66 3.0 WNW 35 50 19 27 1001.4 1001.4 0.4
18/01:13am 13.7 6.9 6.8 63 3.3 WNW 32 50 17 27 1001.5 1001.5 0.4
18/01:00am 13.8 7.1 8.0 68 2.9 WNW 33 44 18 24 1001.9 1001.8 0.4
18/12:50am 13.7 7.1 7.9 68 2.9 WNW 32 50 17 27 1002.0 1001.9 0.4
18/12:30am 14.0 7.1 9.0 72 2.5 WNW 35 48 19 26 1002.1 1002.0 0.4
18/12:05am 14.1 6.0 10.1 77 2.1 W 43 61 23 33 1001.4 1001.4 0.4
18/12:00am 14.1 7.6 10.5 79 1.9 W 35 52 19 28 1001.5 1001.5 0.4
 
Date/Time
EDT
Temp
°C
App
Temp
°C
Dew
Point
°C
Rel
Hum
%
Delta-T
°C
Wind Press
QNH
hPa
Press
MSL
hPa
Rain since
9am
mm
Dir  Spd
km/h
Gust
km/h
Spd
kts
Gust
kts
17/11:54pm 13.8 8.9 11.3 85 1.3 W 28 46 15 25 1001.7 1001.7 0.4
17/11:30pm 13.8 8.3 11.7 87 1.1 WSW 32 39 17 21 1002.3 1002.2 0.4
17/11:00pm 14.0 8.6 12.2 89 1.0 WSW 32 43 17 23 1002.4 1002.3 0.4
17/10:30pm 14.2 11.1 12.2 88 1.1 WSW 20 32 11 17 1002.5 1002.4 0.4
17/10:00pm 14.9 11.7 12.0 83 1.6 W 20 33 11 18 1002.0 1001.9 0.4
17/09:30pm 14.7 12.3 12.6 87 1.2 WNW 17 22 9 12 1002.0 1001.9 0.4
17/09:00pm 15.4 12.0 12.5 83 1.6 WSW 22 33 12 18 1002.2 1002.1 0.0
17/08:30pm 16.5 16.3 11.9 74 2.5 WSW 4 9 2 5 1001.9 1001.8 0.0
17/08:00pm 17.2 16.5 12.1 72 2.8 W 7 17 4 9 1001.9 1001.8 0.0
17/07:30pm 17.4 13.5 12.1 71 2.9 WNW 24 32 13 17 1001.6 1001.6 0.0
17/07:00pm 17.7 13.1 12.2 70 3.1 W 28 33 15 18 1001.7 1001.7 0.0
17/06:30pm 17.9 13.1 11.5 66 3.5 WNW 28 35 15 19 1001.6 1001.6 0.0
17/06:00pm 18.4 13.2 11.7 65 3.7 WNW 30 39 16 21 1001.7 1001.7 0.0
17/05:30pm 18.6 12.9 11.7 64 3.8 WNW 33 43 18 23 1001.6 1001.6 0.0
17/05:00pm 19.3 13.8 12.3 64 3.9 WNW 33 44 18 24 1001.7 1001.7 0.0
17/04:30pm 20.0 13.9 11.8 59 4.6 WNW 35 46 19 25 1001.9 1001.8 0.0
17/04:00pm 21.6 15.9 11.9 54 5.5 WNW 33 41 18 22 1002.3 1002.2 0.0
17/03:30pm 22.0 16.1 12.5 54 5.4 WNW 35 48 19 26 1002.4 1002.3 0.0
17/03:00pm 22.1 16.2 12.4 54 5.5 W 35 44 19 24 1002.6 1002.5 0.0
17/02:30pm 20.3 14.9 12.3 60 4.5 W 32 39 17 21 1002.8 1002.7 0.0
17/02:26pm 20.6 16.0 12.3 59 4.7 W 28 39 15 21 1002.8 1002.7 0.0
17/02:00pm 22.0 19.8 10.8 49 6.2 W 13 20 7 11 1003.0 1002.9 0.0
17/01:30pm 21.3 17.5 11.3 53 5.5 W 22 35 12 19 1003.2 1003.1 0.0
17/01:00pm 21.4 20.2 12.8 58 4.9 WSW 11 19 6 10 1003.3 1003.2 0.0
17/12:30pm 18.6 13.5 10.7 60 4.3 W 28 37 15 20 1003.5 1003.4 0.0
17/12:00pm 19.0 12.5 10.3 57 4.7 W 35 44 19 24 1003.2 1003.1 0.0
17/11:30am 18.1 10.3 9.7 58 4.4 WNW 41 54 22 29 1003.4 1003.3 0.0
17/11:03am 18.0 12.1 10.4 61 4.1 WNW 32 50 17 27 1003.6 1003.5 0.0
17/11:00am 18.1 12.0 10.5 61 4.1 W 33 41 18 22 1003.7 1003.6 0.0
17/10:30am 17.8 12.3 10.7 63 3.8 W 30 39 16 21 1004.0 1003.9 0.0
17/10:00am 17.6 14.0 9.8 60 4.1 WNW 19 28 10 15 1004.1 1004.0 0.0
17/09:30am 18.5 16.0 9.8 57 4.6 NW 13 30 7 16 1004.5 1004.4 0.0
17/09:00am 18.6 16.2 9.9 57 4.7 N 13 20 7 11 1004.5 1004.4 0.0
17/08:30am 17.9 15.6 9.0 56 4.6 WNW 11 17 6 9 1004.9 1004.8 0.0
17/08:00am 17.6 15.4 9.2 58 4.4 WNW 11 20 6 11 1004.9 1004.8 0.0
17/07:30am 16.0 11.2 9.0 63 3.6 NW 24 33 13 18 1004.8 1004.7 0.0
17/07:00am 15.7 9.2 8.9 64 3.5 WNW 33 43 18 23 1004.5 1004.4 0.0
17/06:30am 15.3 9.1 9.2 67 3.1 NW 32 46 17 25 1004.3 1004.2 0.0
17/06:00am 15.1 8.2 9.0 67 3.1 NW 35 46 19 25 1004.0 1003.9 0.0
17/05:30am 15.5 8.5 8.3 62 3.6 NW 35 46 19 25 1003.5 1003.4 0.0
17/05:00am 15.4 7.3 8.6 64 3.5 WNW 41 48 22 26 1003.1 1003.0 0.0
17/04:30am 15.4 7.0 8.9 65 3.3 WNW 43 61 23 33 1002.9 1002.8 0.0
17/04:00am 15.2 8.6 8.4 64 3.5 WNW 33 54 18 29 1003.0 1002.9 0.0
17/03:55am 15.0 11.0 8.9 67 3.1 WNW 20 46 11 25 1003.1 1003.0 0.0
17/03:30am 14.4 12.9 9.0 70 2.8 SSW 7 15 4 8 1003.4 1003.3 0.0
17/03:00am 14.4 12.3 9.6 73 2.5 SE 11 19 6 10 1003.6 1003.5 0.0
17/02:30am 14.8 10.9 8.7 67 3.1 W 19 32 10 17 1003.8 1003.7 0.0
17/02:00am 15.3 6.7 9.0 66 3.2 WNW 44 56 24 30 1003.8 1003.7 0.0
17/01:30am 15.6 9.0 8.4 62 3.7 NW 33 52 18 28 1004.1 1004.0 0.0
17/01:23am 15.3 9.3 8.5 64 3.5 NW 30 48 16 26 1004.1 1004.0 0.0
17/01:00am 15.1 10.3 9.0 67 3.1 WNW 24 39 13 21 1004.4 1004.3 0.0
17/12:30am 15.0 10.6 8.9 67 3.1 WNW 22 32 12 17 1004.9 1004.8 0.0
17/12:00am 15.2 10.4 8.9 66 3.2 WNW 24 33 13 18 1005.0 1004.9 0.0
 
Date/Time
EDT
Temp
°C
App
Temp
°C
Dew
Point
°C
Rel
Hum
%
Delta-T
°C
Wind Press
QNH
hPa
Press
MSL
hPa
Rain since
9am
mm
Dir  Spd
km/h
Gust
km/h
Spd
kts
Gust
kts
16/11:30pm 15.4 10.0 9.5 68 3.1 WNW 28 37 15 20 1005.2 1005.1 0.0
16/11:00pm 15.8 8.7 9.5 66 3.3 WNW 37 44 20 24 1005.6 1005.5 0.0
16/10:30pm 15.9 9.2 9.8 67 3.2 WNW 35 44 19 24 1005.6 1005.5 0.0
16/10:00pm 15.6 11.6 10.4 71 2.8 WSW 22 35 12 19 1006.2 1006.1 0.0
16/09:30pm 14.0 12.7 10.0 77 2.1 SE 7 13 4 7 1006.3 1006.2 0.0
16/09:00pm 14.6 11.9 10.4 76 2.2 SE 15 20 8 11 1006.3 1006.2 0.0
16/08:30pm 15.1 13.3 10.9 76 2.2 SSE 11 19 6 10 1006.3 1006.2 0.0
16/08:00pm 15.6 12.8 11.2 75 2.4 SE 17 24 9 13 1006.3 1006.2 0.0
16/07:30pm 16.6 13.8 11.3 71 2.9 SE 17 26 9 14 1006.0 1005.9 0.0
16/07:00pm 21.0 18.5 9.6 48 6.1 WNW 13 20 7 11 1005.9 1005.8 0.0
16/06:30pm 22.4 20.2 9.2 43 7.1 NW 11 20 6 11 1005.9 1005.8 0.0
16/06:00pm 22.3 18.2 8.8 42 7.2 WNW 20 28 11 15 1006.0 1005.9 0.0
16/05:30pm 22.8 19.1 8.1 39 7.8 NNW 17 30 9 16 1006.2 1006.1 0.0
16/05:00pm 22.6 20.1 9.7 44 7.0 WNW 13 32 7 17 1006.5 1006.4 0.0
16/04:30pm 19.9 18.3 11.4 58 4.7 ESE 11 20 6 11 1006.8 1006.7 0.0
16/04:00pm 19.3 16.5 11.3 60 4.4 ESE 17 24 9 13 1007.4 1007.3 0.0
16/03:30pm 19.4 17.3 9.6 53 5.2 E 11 17 6 9 1007.8 1007.7 0.0
16/03:00pm 17.7 15.7 10.1 61 4.1 ESE 11 15 6 8 1008.2 1008.1 0.0
16/02:30pm 19.1 17.8 9.3 53 5.2 WSW 6 17 3 9 1008.5 1008.4 0.0
16/02:00pm 20.3 17.6 8.9 48 6.0 W 13 17 7 9 1009.0 1008.9 0.0
16/01:30pm 20.4 15.9 10.2 52 5.5 W 24 28 13 15 1009.3 1009.2 0.0
16/01:00pm 19.3 13.5 9.5 53 5.2 W 30 39 16 21 1009.5 1009.4 0.0
16/12:30pm 19.6 15.6 9.2 51 5.5 WNW 20 28 11 15 1009.8 1009.7 0.0
16/12:29pm 19.5 15.5 9.1 51 5.5 WNW 20 30 11 16 1009.8 1009.7 0.0
16/12:00pm 19.3 12.3 10.0 55 5.0 W 37 50 20 27 1009.8 1009.7 0.0
16/11:54am 18.7 12.9 9.5 55 4.9 WNW 30 50 16 27 1009.9 1009.8 0.0
16/11:30am 18.3 14.2 8.8 54 4.9 NW 20 30 11 16 1010.1 1010.0 0.0
16/11:00am 17.6 12.9 9.2 58 4.4 WNW 24 39 13 21 1010.1 1010.0 0.0
16/10:30am 17.2 10.4 9.1 59 4.2 WNW 35 43 19 23 1010.1 1010.0 0.0
16/10:00am 15.8 10.3 9.2 65 3.4 WNW 28 37 15 20 1010.4 1010.3 0.0
16/09:30am 16.3 11.8 9.9 66 3.4 WNW 24 33 13 18 1010.6 1010.5 0.0
16/09:00am 15.1 11.0 8.8 66 3.2 WNW 20 30 11 16 1010.5 1010.4 0.0
16/08:30am 14.7 8.4 8.9 68 3.0 WNW 32 43 17 23 1010.4 1010.3 0.0
16/08:00am 14.0 5.9 8.6 70 2.7 WNW 41 52 22 28 1009.9 1009.8 0.0
16/07:30am 13.9 7.3 8.7 71 2.6 WNW 33 48 18 26 1010.0 1009.9 0.0
16/07:00am 13.4 5.9 8.0 70 2.7 WNW 37 48 20 26 1009.7 1009.6 0.0
16/06:30am 13.1 5.2 7.8 70 2.6 WNW 39 50 21 27 1009.5 1009.4 0.0
16/06:00am 13.2 6.1 8.1 71 2.5 WNW 35 48 19 26 1009.5 1009.4 0.0
16/05:30am 13.2 5.6 7.6 69 2.8 WNW 37 52 20 28 1009.4 1009.3 0.0
16/05:00am 13.4 5.4 7.6 68 2.9 WNW 39 50 21 27 1009.1 1009.0 0.0
16/04:30am 13.5 6.9 8.4 71 2.6 WNW 33 46 18 25 1009.0 1008.9 0.0
16/04:01am 13.4 5.2 8.0 70 2.7 WNW 41 59 22 32 1008.8 1008.7 0.0
16/04:00am 13.4 4.7 7.8 69 2.8 WNW 43 59 23 32 1008.9 1008.8 0.0
16/03:30am 13.3 3.8 8.2 71 2.5 WNW 48 67 26 36 1008.8 1008.7 0.0
16/03:00am 13.3 4.7 8.2 71 2.5 WNW 43 61 23 33 1009.0 1008.9 0.0
16/02:57am 13.4 4.8 8.3 71 2.5 WNW 43 61 23 33 1009.0 1008.9 0.0
16/02:30am 13.5 6.8 7.3 66 3.0 WNW 32 46 17 25 1009.4 1009.3 0.0
16/02:00am 13.1 5.9 7.8 70 2.6 WNW 35 48 19 26 1009.4 1009.3 0.0
16/01:30am 13.2 4.5 7.9 70 2.6 WNW 43 50 23 27 1009.8 1009.7 0.0
16/01:00am 13.5 5.3 8.1 70 2.7 WNW 41 52 22 28 1010.3 1010.2 0.0
16/12:30am 13.6 5.6 8.9 73 2.4 WNW 41 50 22 27 1010.4 1010.3 0.0
16/12:20am 13.4 4.3 8.3 71 2.5 W 46 65 25 35 1010.4 1010.3 0.0
16/12:00am 13.5 3.6 8.1 70 2.7 W 50 61 27 33 1010.3 1010.2 0.0
 
Date/Time
EDT
Temp
°C
App
Temp
°C
Dew
Point
°C
Rel
Hum
%
Delta-T
°C
Wind Press
QNH
hPa
Press
MSL
hPa
Rain since
9am
mm
Dir  Spd
km/h
Gust
km/h
Spd
kts
Gust
kts
15/11:51pm 13.4 5.2 8.0 70 2.7 WNW 41 57 22 31 1010.6 1010.5 0.0
15/11:30pm 13.8 8.2 8.8 72 2.5 WNW 28 35 15 19 1010.9 1010.8 0.0
15/11:00pm 13.8 5.4 8.8 72 2.5 W 43 50 23 27 1011.1 1011.0 0.0
15/10:30pm 13.7 5.2 8.5 71 2.6 WNW 43 50 23 27 1011.3 1011.2 0.0
15/10:00pm 13.7 4.7 8.7 72 2.5 WNW 46 57 25 31 1011.5 1011.4 0.0
15/09:30pm 13.9 5.5 8.9 72 2.5 WNW 43 50 23 27 1011.3 1011.2 0.0

Other Formats:

Comma delimited format used in spreadsheet applications
http://www.bom.gov.au/fwo/IDT60801/IDT60801.95967.axf

JavaScript Object Notation format (JSON) in row-major order
http://www.bom.gov.au/fwo/IDT60801/IDT60801.95967.json